[[{"header":{"parameterUnit":"m.s-1","parameterCategory":1,"la1":30.2991,"la2":30.254,"lo1":-89.0895,"lo2":-89.0444,"dy":0.0017,"dx":0.0017,"nx":28,"ny":28,"refTime":"2023-09-28T21:00:00:Z","depth":0,"parameterNumber":2,"parameterNumberName":"U-component_of_WINDS"},"data":[0,0,0,0,0,0,0,0,0,0,0,0,0,0,0,0,0,0,0,0,0,0,0,0,0,0,0,0,0,0,0,0,0,0,0,0,0,0,0,0,0,0,0,0,0,0,0,0,0,0,0,0,0,0,0,0,0,0,-3.5207,-3.5207,0,-3.5211,-3.5211,-3.5211,-3.5143,-3.5142,-3.514,-3.5138,-3.5144,-3.5146,-3.5148,0,0,0,0,0,0,0,0,0,0,0,0,0,-3.5146,-3.5147,-3.5207,-3.5207,-3.5207,-3.5211,-3.5211,-3.5211,-3.5144,-3.5142,-3.5139,-3.5137,-3.5144,-3.5146,-3.5148,0,0,0,0,0,0,0,0,0,0,0,0,0,-3.5163,-3.5148,-3.5207,-3.5174,-3.5171,-3.5211,-3.5211,-3.5211,-3.5144,-3.5142,-3.5139,-3.5136,-3.5143,-3.5146,-3.5148,-3.5221,0,0,-3.5157,-3.5158,0,0,0,0,0,0,0,0,-3.5162,-3.5166,-3.5179,-3.5177,-3.5173,-3.5174,-3.5191,-3.5214,-3.5145,-3.5155,-3.5138,-3.5135,-3.5157,-3.5158,-3.5165,-3.5221,-3.5221,-3.5157,-3.5159,-3.516,-3.5161,0,0,0,0,0,0,0,-3.5161,-3.5165,-3.5209,-3.5179,-3.5176,-3.516,-3.516,-3.5195,-3.5171,-3.5154,-3.5149,-3.515,-3.5154,-3.5162,-3.5164,-3.5221,-3.5157,-3.516,-3.5161,-3.5162,-3.534,-3.5343,0,0,0,0,0,0,-3.5164,-3.5164,-3.5209,-3.5209,-3.5161,-3.5164,-3.5163,-3.5177,-3.517,-3.5167,-3.5152,-3.5147,-3.5159,-3.5161,-3.5164,-3.5251,-3.516,-3.5163,-3.5164,-3.5337,-3.5341,-3.5344,0,0,0,0,0,0,-3.5163,-3.5169,-3.5208,-3.5185,-3.5189,-3.5168,-3.5183,-3.5178,-3.5186,-3.5169,-3.5165,-3.5165,-3.5157,-3.516,-3.5208,-3.525,-3.5164,-3.5166,-3.5333,-3.5338,-3.5342,-3.5423,0,0,0,0,0,0,-3.5162,-3.5169,-3.5195,-3.5186,-3.5191,-3.5251,-3.5186,-3.518,-3.519,-3.5183,-3.518,-3.5176,-3.5155,-3.5204,-3.521,-3.5252,-3.5169,-3.5329,-3.5335,-3.5341,-3.5416,-3.5429,-3.5441,0,0,0,0,0,-3.516,-3.5217,-3.5197,-3.5202,-3.5223,-3.5253,-3.5256,-3.5229,-3.5194,-3.5221,-3.5211,-3.5177,-3.5244,-3.5209,-3.5216,-3.5259,-3.5327,-3.5334,-3.534,-3.5411,-3.5427,-3.544,0,0,0,0,0,0,-3.5231,-3.5215,-3.5192,-3.5249,-3.5253,-3.5242,-3.5275,-3.5247,-3.5261,-3.5254,-3.5221,-3.5221,-3.5274,-3.5271,-3.5233,-3.533,-3.5279,-3.5288,-3.533,-3.5346,-3.5358,-3.5358,-3.5171,0,0,0,0,0,-3.5254,-3.5279,-3.5264,-3.5315,-3.5318,-3.5297,-3.5309,-3.5288,-3.5291,-3.5293,-3.5286,-3.5291,-3.5314,-3.5329,-3.5349,-3.5415,-3.5415,-3.5448,-3.5461,-3.5471,-3.5479,-3.5517,-3.5532,-3.5366,-3.5366,-3.5366,0,0,-3.53,-3.5294,-3.5312,-3.5329,-3.533,-3.5358,-3.5298,-3.533,-3.5351,-3.5298,-3.5342,-3.5338,-3.5342,-3.5399,-3.5424,-3.5399,-3.5525,-3.548,-3.5488,-3.549,-3.5526,-3.5541,-3.5555,-3.5371,-3.537,-3.5369,0,0,-3.5399,-3.5397,-3.544,-3.5443,-3.5445,-3.543,-3.5441,-3.5435,-3.543,-3.5474,-3.5435,-3.546,-3.5499,-3.5504,-3.5512,-3.5616,-3.5586,-3.5623,-3.5688,-3.5725,-3.5738,-3.575,-3.579,-3.5804,-3.5631,-3.5632,-3.5632,0,-3.5457,-3.5497,-3.5467,-3.5502,-3.5512,-3.5464,-3.5509,-3.5513,-3.5522,-3.5531,-3.5501,-3.5551,-3.555,-3.561,-3.5635,-3.5642,-3.5655,-3.5624,-3.5739,-3.575,-3.576,-3.5798,-3.5813,-3.5636,-3.5636,-3.5635,-3.5635,0,-3.5569,-3.5598,-3.5633,-3.5643,-3.5656,-3.5696,-3.5674,-3.5691,-3.567,-3.5659,-3.5706,-3.5704,-3.5723,-3.5736,-3.5715,-3.5794,-3.5778,-3.5744,-3.5693,-3.5781,-3.5816,-3.583,-3.5643,-3.5641,-3.564,-3.5639,0,0,-3.5713,-3.5707,-3.5721,-3.5726,-3.5726,-3.5748,-3.5787,-3.5805,-3.5823,-3.583,-3.5864,-3.5899,-3.5869,-3.5878,-3.5857,-3.589,-3.5976,-3.5852,-3.5852,-3.5877,-3.6066,-3.6092,-3.6109,-3.5955,-3.5958,-3.596,-3.6066,0,-3.5812,-3.5877,-3.5852,-3.592,-3.5947,-3.5904,-3.5938,-3.5943,-3.5934,-3.5957,-3.5948,-3.5975,-3.5931,-3.5937,-3.5967,-3.5959,-3.6013,-3.595,-3.5988,-3.599,-3.599,-3.6127,-3.6154,-3.6255,-3.6079,-3.6081,-3.6083,0,-3.5935,-3.5949,-3.602,-3.6017,-3.6027,-3.6058,-3.6075,-3.6097,-3.6102,-3.6094,-3.6106,-3.6079,-3.6119,-3.6067,-3.6123,-3.6081,-3.6095,-3.6094,-3.6097,-3.6101,-3.6043,-3.6136,-3.6286,-3.6302,-3.6104,-3.6102,-3.61,0,-3.6036,-3.6072,-3.612,-3.6125,-3.6122,-3.6146,-3.6146,-3.6148,-3.6162,-3.6177,-3.6186,-3.6206,-3.6217,-3.6234,-3.6214,-3.6178,-3.6275,-3.622,-3.6271,-3.6272,-3.6294,-3.6293,-3.645,-3.63,-3.63,-3.63,-3.63,0,-3.6149,-3.6195,-3.6165,-3.6195,-3.6246,-3.6217,-3.6268,-3.6264,-3.6267,-3.6296,-3.626,-3.6288,-3.6259,-3.6286,-3.6271,-3.6322,-3.6326,-3.6322,-3.6318,-3.6327,-3.6328,-3.6337,-3.633,-3.6304,-3.6303,-3.6302,-3.6302,0,-3.6271,-3.6252,-3.6302,-3.6296,-3.6296,-3.6334,-3.6329,-3.6357,-3.6347,-3.6385,-3.6392,-3.6376,-3.6405,-3.6387,-3.6417,-3.6407,-3.6474,-3.6459,-3.6472,-3.6469,-3.6522,-3.6518,-3.6691,-3.6714,-3.6548,-3.6549,-3.6551,0,-3.6345,-3.638,-3.6378,-3.6395,-3.6397,-3.6424,-3.6439,-3.6413,-3.6429,-3.6439,-3.6467,-3.6493,-3.6513,-3.6563,-3.6555,-3.6579,-3.6566,-3.6625,-3.6569,-3.6578,-3.657,-3.6569,-3.6573,-3.6637,-3.6639,-3.664,-3.6641,0,-3.648,-3.647,-3.6491,-3.6511,-3.6529,-3.6543,-3.6554,-3.657,-3.6544,-3.6565,-3.6595,-3.661,-3.6642,-3.667,-3.669,-3.6692,-3.6664,-3.6659,-3.6673,-3.6683,-3.669,-3.6689,-3.6505,-3.6655,-3.6654,-3.6653,-3.6652,-3.6652,-3.6582,-3.6611,-3.6615,-3.6641,-3.6647,-3.6659,-3.6686,-3.6679,-3.6703,-3.6726,-3.6709,-3.6746,-3.6753,-3.6777,-3.6783,-3.6813,-3.6789,-3.6808,-3.6813,-3.6819,-3.6827,-3.6684,-3.6816,-3.6816,-3.6815,-3.6815,-3.6815,0,-3.6717,-3.6717,-3.6741,-3.6759,-3.678,-3.675,-3.6762,-3.6782,-3.6814,-3.6823,-3.6843,-3.6879,-3.6907,-3.6902,-3.6927,-3.6952,-3.694,-3.696,-3.6958,-3.696,-3.6845,-3.6832,-3.6969,-3.6969,-3.6969,-3.6969,-3.6969,-3.6969,-3.6789,-3.6838,-3.6829,-3.6882,-3.6882,-3.6917,-3.6927,-3.6938,-3.6945,-3.6987,-3.701,-3.7006,-3.701,-3.7036,-3.706,-3.7058,-3.7071,-3.7096,-3.7089,-3.6983,-3.6968,-3.6953,-3.6941,-3.7098,-3.7098,-3.7202,-3.7203,-3.7203]},{"header":{"parameterUnit":"m.s-1","parameterCategory":1,"la1":30.2991,"la2":30.254,"lo1":-89.0895,"lo2":-89.0444,"dy":0.0017,"dx":0.0017,"nx":28,"ny":28,"refTime":"2023-09-28T21:00:00:Z","depth":0,"parameterNumber":3,"parameterNumberName":"V-component_of_WINDS"},"data":[0,0,0,0,0,0,0,0,0,0,0,0,0,0,0,0,0,0,0,0,0,0,0,0,0,0,0,0,0,0,0,0,0,0,0,0,0,0,0,0,0,0,0,0,0,0,0,0,0,0,0,0,0,0,0,0,0,0,-0.8663,-0.8663,0,-0.8655,-0.8655,-0.8655,-0.8619,-0.8618,-0.8617,-0.8617,-0.861,-0.861,-0.8611,0,0,0,0,0,0,0,0,0,0,0,0,0,-0.8649,-0.8649,-0.8663,-0.8663,-0.8663,-0.8655,-0.8655,-0.8655,-0.8619,-0.8618,-0.8617,-0.8616,-0.8609,-0.861,-0.8611,0,0,0,0,0,0,0,0,0,0,0,0,0,-0.8649,-0.8649,-0.8663,-0.8644,-0.8642,-0.8655,-0.8655,-0.8655,-0.8619,-0.8618,-0.8617,-0.8616,-0.8609,-0.861,-0.8611,-0.8642,0,0,-0.8614,-0.8614,0,0,0,0,0,0,0,0,-0.8649,-0.865,-0.8647,-0.8645,-0.8643,-0.8637,-0.8647,-0.865,-0.862,-0.8628,-0.8617,-0.8615,-0.862,-0.862,-0.8621,-0.8641,-0.8641,-0.8614,-0.8614,-0.8615,-0.8615,0,0,0,0,0,0,0,-0.8649,-0.865,-0.866,-0.8647,-0.8645,-0.8636,-0.8635,-0.8648,-0.8631,-0.8627,-0.8625,-0.8624,-0.8618,-0.862,-0.8621,-0.8641,-0.8614,-0.8614,-0.8615,-0.8615,-0.8688,-0.869,0,0,0,0,0,0,-0.8652,-0.865,-0.866,-0.866,-0.8643,-0.8638,-0.8636,-0.864,-0.8631,-0.8628,-0.8625,-0.8623,-0.8619,-0.862,-0.862,-0.8658,-0.8615,-0.8615,-0.8616,-0.8687,-0.8689,-0.869,0,0,0,0,0,0,-0.8652,-0.8653,-0.866,-0.8654,-0.8654,-0.8639,-0.8644,-0.8641,-0.8642,-0.8629,-0.8626,-0.863,-0.8618,-0.8619,-0.8637,-0.8657,-0.8616,-0.8617,-0.8685,-0.8687,-0.8689,-0.8732,0,0,0,0,0,0,-0.8651,-0.8653,-0.8664,-0.8655,-0.8655,-0.8677,-0.8645,-0.8641,-0.8644,-0.864,-0.8633,-0.8631,-0.8617,-0.8636,-0.8638,-0.8657,-0.8617,-0.8683,-0.8686,-0.8689,-0.8728,-0.8735,-0.874,0,0,0,0,0,-0.8651,-0.8676,-0.8665,-0.8667,-0.8669,-0.8678,-0.8678,-0.8662,-0.8645,-0.8657,-0.8649,-0.8631,-0.8654,-0.8638,-0.864,-0.866,-0.8682,-0.8685,-0.8688,-0.8726,-0.8734,-0.874,0,0,0,0,0,0,-0.8689,-0.8675,-0.8662,-0.8685,-0.8683,-0.8672,-0.8686,-0.8671,-0.8674,-0.8671,-0.8651,-0.8649,-0.8671,-0.8667,-0.865,-0.869,-0.8665,-0.8669,-0.8693,-0.87,-0.8706,-0.8708,-0.8618,0,0,0,0,0,-0.87,-0.8709,-0.8696,-0.8717,-0.8717,-0.8702,-0.8705,-0.8693,-0.8691,-0.869,-0.8683,-0.8681,-0.8688,-0.8693,-0.8699,-0.8727,-0.8726,-0.8741,-0.8747,-0.8752,-0.8757,-0.8774,-0.8781,-0.87,-0.87,-0.87,0,0,-0.8723,-0.8716,-0.8723,-0.8725,-0.8722,-0.8732,-0.8701,-0.8713,-0.8721,-0.8692,-0.8709,-0.8704,-0.8701,-0.8725,-0.8735,-0.8722,-0.8779,-0.8756,-0.8761,-0.8762,-0.8778,-0.8785,-0.8792,-0.8703,-0.8702,-0.8702,0,0,-0.8771,-0.8766,-0.8784,-0.8782,-0.8778,-0.8768,-0.8772,-0.8763,-0.8759,-0.8776,-0.8755,-0.8763,-0.8775,-0.8775,-0.8776,-0.8824,-0.8809,-0.8826,-0.8859,-0.8875,-0.8882,-0.8887,-0.8907,-0.8914,-0.883,-0.883,-0.883,0,-0.8801,-0.8815,-0.8796,-0.8809,-0.8812,-0.8785,-0.8804,-0.8803,-0.8801,-0.8803,-0.8788,-0.8804,-0.88,-0.8824,-0.8836,-0.8837,-0.8843,-0.8828,-0.8882,-0.8888,-0.8893,-0.8911,-0.8918,-0.8832,-0.8832,-0.8832,-0.8832,0,-0.8853,-0.8863,-0.8878,-0.8878,-0.8881,-0.8897,-0.8882,-0.8887,-0.8875,-0.8866,-0.8885,-0.8879,-0.8884,-0.8888,-0.8875,-0.8911,-0.8903,-0.8885,-0.886,-0.8903,-0.892,-0.8927,-0.8836,-0.8835,-0.8834,-0.8834,0,0,-0.8926,-0.8914,-0.8921,-0.8921,-0.8914,-0.8922,-0.8937,-0.8942,-0.8949,-0.8948,-0.8962,-0.8973,-0.8956,-0.8958,-0.8945,-0.8959,-0.9001,-0.894,-0.8939,-0.8954,-0.9043,-0.9059,-0.9067,-0.8989,-0.899,-0.8991,-0.9044,0,-0.8974,-0.9,-0.8983,-0.9013,-0.9023,-0.8997,-0.9011,-0.9009,-0.9002,-0.901,-0.9001,-0.9011,-0.8987,-0.8988,-0.9,-0.8993,-0.9019,-0.8988,-0.9004,-0.9005,-0.9009,-0.9076,-0.9092,-0.9142,-0.905,-0.9051,-0.9052,0,-0.9034,-0.9037,-0.9067,-0.906,-0.9063,-0.9076,-0.908,-0.9087,-0.9085,-0.9078,-0.908,-0.9064,-0.908,-0.9053,-0.9075,-0.9055,-0.906,-0.9057,-0.9059,-0.9062,-0.9033,-0.9084,-0.9157,-0.9166,-0.9062,-0.9061,-0.9061,0,-0.9088,-0.9099,-0.9119,-0.9119,-0.9111,-0.9121,-0.9117,-0.9113,-0.9118,-0.9121,-0.9124,-0.9128,-0.9132,-0.9136,-0.9122,-0.9103,-0.9147,-0.9119,-0.9144,-0.9145,-0.9157,-0.9157,-0.9236,-0.9155,-0.9155,-0.9155,-0.9155,0,-0.9145,-0.9166,-0.9143,-0.9156,-0.9179,-0.9159,-0.9182,-0.9176,-0.9173,-0.9185,-0.9161,-0.9173,-0.9152,-0.9162,-0.9151,-0.9173,-0.9174,-0.9171,-0.9168,-0.9175,-0.9175,-0.918,-0.9177,-0.9157,-0.9157,-0.9156,-0.9156,0,-0.9211,-0.9196,-0.9217,-0.9207,-0.9205,-0.9223,-0.9214,-0.9226,-0.9217,-0.9232,-0.9235,-0.922,-0.9231,-0.9216,-0.9225,-0.9218,-0.9249,-0.9239,-0.925,-0.9248,-0.9276,-0.9275,-0.9363,-0.9375,-0.9284,-0.9285,-0.9285,0,-0.925,-0.9265,-0.9257,-0.9263,-0.9262,-0.9272,-0.9276,-0.9257,-0.9263,-0.9261,-0.9274,-0.9282,-0.9289,-0.9307,-0.9298,-0.9305,-0.9297,-0.9328,-0.9299,-0.9305,-0.9302,-0.9302,-0.9305,-0.9335,-0.9336,-0.9337,-0.9337,0,-0.9322,-0.9314,-0.9321,-0.9326,-0.9332,-0.9335,-0.9336,-0.9343,-0.9323,-0.9331,-0.9341,-0.9346,-0.9355,-0.9365,-0.937,-0.9367,-0.935,-0.9346,-0.9353,-0.9362,-0.9369,-0.9369,-0.927,-0.9345,-0.9344,-0.9344,-0.9343,-0.9343,-0.9378,-0.9391,-0.9388,-0.9397,-0.9395,-0.9397,-0.9409,-0.9401,-0.9409,-0.9415,-0.9403,-0.9417,-0.9415,-0.942,-0.9419,-0.9431,-0.9418,-0.9427,-0.943,-0.9434,-0.9439,-0.9364,-0.9431,-0.9431,-0.9431,-0.943,-0.943,0,-0.9451,-0.9448,-0.9456,-0.9459,-0.9466,-0.9448,-0.9448,-0.9456,-0.9469,-0.9468,-0.9475,-0.9488,-0.9497,-0.9489,-0.9496,-0.9507,-0.95,-0.9511,-0.9511,-0.9512,-0.9449,-0.9444,-0.9517,-0.9517,-0.9517,-0.9517,-0.9517,-0.9517,-0.9491,-0.9513,-0.9505,-0.9526,-0.9522,-0.9536,-0.9539,-0.9541,-0.954,-0.9556,-0.9564,-0.9557,-0.9554,-0.9562,-0.957,-0.9567,-0.9572,-0.9587,-0.9582,-0.9524,-0.9516,-0.9508,-0.9503,-0.9587,-0.9587,-0.9643,-0.9644,-0.9644]}]]